Tracking 34142 objects as of 17-May-2026
HD Live streaming from Space Station
objects crossing your sky now

STARLINK-5676

Track STARLINK-5676 now!
10-day predictions
STARLINK-5676 is classified as:


NORAD ID: 55464
Int'l Code: 2023-015R
Perigee: 489.3 km
Apogee: 491.1 km
Inclination: 43.0 °
Period: 94.3 minutes
Semi major axis: 6861 km
RCS: Unknown
Launch date: February 2, 2023
Source: United States (US)
Launch site: AIR FORCE EASTERN TEST RANGE (AFETR)
Your satellite tracking list
Your tracking list is empty




NASA's NSSDC Master Catalog

Two Line Element Set (TLE):
1 55464U 23015R   26137.15764929  .00000531  00000-0  28837-4 0  9998
2 55464  43.0025 302.0213 0001320 267.0878  92.9823 15.27580123181192
Source of the keplerian elements: AFSPC